EN

Hourly Weather Bolshoe Alitovo

Today, 21 October, Wednesday

Time Temperature Precipitation Wind Pressure Humidity
00:00 -2°C° 0 mm 5 mps 745 mmHg 86%
01:00 -2°C° 0 mm 4 mps 746 mmHg 87%
02:00 -2°C° 0 mm 4 mps 746 mmHg 89%
03:00 -3°C° 0 mm 4 mps 747 mmHg 90%
04:00 -3°C° 0 mm 4 mps 747 mmHg 91%
05:00 -3°C° 0 mm 4 mps 747 mmHg 91%
06:00 -3°C° 0 mm 4 mps 747 mmHg 92%
07:00 -2°C° 0 mm 4 mps 747 mmHg 89%
08:00 -2°C° 0 mm 4 mps 748 mmHg 87%
09:00 -1°C° 0 mm 4 mps 748 mmHg 84%
10:00 0°C° 0 mm 4 mps 748 mmHg 80%
11:00 0°C° 0 mm 4 mps 748 mmHg 75%
12:00 +1°C° 0 mm 4 mps 747 mmHg 70%
13:00 +1°C° 0 mm 4 mps 747 mmHg 72%
14:00 +1°C° 0 mm 4 mps 747 mmHg 74%
15:00 +1°C° 0 mm 4 mps 747 mmHg 76%
16:00 +1°C° 0.1 mm 4 mps 747 mmHg 83%
17:00 +1°C° 0.1 mm 3 mps 746 mmHg 89%
18:00 +1°C° 0.1 mm 3 mps 746 mmHg 96%
19:00 +1°C° 0.3 mm 3 mps 746 mmHg 96%
20:00 +2°C° 0.3 mm 2 mps 746 mmHg 96%
21:00 +3°C° 0.3 mm 2 mps 746 mmHg 96%
22:00 +3°C° 0 mm 2 mps 745 mmHg 96%
23:00 +3°C° 0 mm 2 mps 745 mmHg 95%

Tomorrow, 22 October, Thursday

Time Temperature Precipitation Wind Pressure Humidity
00:00 +3°C° 0 mm 2 mps 745 mmHg 95%
01:00 +3°C° 0.1 mm 2 mps 745 mmHg 95%
02:00 +3°C° 0.1 mm 2 mps 745 mmHg 95%
03:00 +4°C° 0.1 mm 2 mps 745 mmHg 95%
04:00 +4°C° 0.1 mm 2 mps 745 mmHg 95%
05:00 +4°C° 0.1 mm 2 mps 745 mmHg 95%
06:00 +4°C° 0.1 mm 2 mps 745 mmHg 95%
07:00 +4°C° 0 mm 2 mps 745 mmHg 94%
08:00 +4°C° 0 mm 2 mps 745 mmHg 93%
09:00 +4°C° 0 mm 3 mps 744 mmHg 91%
10:00 +5°C° 0 mm 3 mps 744 mmHg 88%
11:00 +5°C° 0 mm 3 mps 744 mmHg 85%
12:00 +7°C° 0 mm 3 mps 744 mmHg 83%
13:00 +7°C° 0.1 mm 3 mps 744 mmHg 81%
14:00 +8°C° 0.1 mm 3 mps 743 mmHg 80%
15:00 +8°C° 0.1 mm 3 mps 743 mmHg 79%
16:00 +7°C° 0.2 mm 4 mps 743 mmHg 82%
17:00 +6°C° 0.2 mm 4 mps 742 mmHg 84%
18:00 +6°C° 0.2 mm 4 mps 741 mmHg 87%
19:00 +6°C° 0.5 mm 4 mps 741 mmHg 88%
20:00 +6°C° 0.5 mm 5 mps 740 mmHg 90%
21:00 +6°C° 0.5 mm 5 mps 740 mmHg 92%
22:00 +7°C° 0.3 mm 5 mps 739 mmHg 91%
23:00 +7°C° 0.3 mm 5 mps 739 mmHg 91%

Day after tomorrow, 23 October, Friday

Time Temperature Precipitation Wind Pressure Humidity
00:00 +7°C° 0.3 mm 5 mps 738 mmHg 90%
01:00 +7°C° 0.2 mm 5 mps 738 mmHg 91%
02:00 +8°C° 0.2 mm 6 mps 738 mmHg 91%
03:00 +8°C° 0.2 mm 6 mps 738 mmHg 92%
04:00 +8°C° 0 mm 6 mps 738 mmHg 91%
05:00 +9°C° 0 mm 6 mps 738 mmHg 91%
06:00 +9°C° 0 mm 6 mps 738 mmHg 90%
07:00 +9°C° 0 mm 6 mps 738 mmHg 89%
08:00 +9°C° 0 mm 6 mps 739 mmHg 89%
09:00 +9°C° 0 mm 5 mps 739 mmHg 88%
10:00 +9°C° 0 mm 6 mps 739 mmHg 87%
11:00 +9°C° 0 mm 6 mps 739 mmHg 87%
12:00 +10°C° 0 mm 6 mps 739 mmHg 86%
13:00 +10°C° 0 mm 6 mps 739 mmHg 85%
14:00 +10°C° 0 mm 5 mps 739 mmHg 85%
15:00 +10°C° 0 mm 5 mps 738 mmHg 84%
16:00 +10°C° 0 mm 5 mps 738 mmHg 85%
17:00 +10°C° 0 mm 5 mps 737 mmHg 87%
18:00 +10°C° 0 mm 5 mps 737 mmHg 88%
19:00 +10°C° 0.4 mm 6 mps 736 mmHg 88%
20:00 +11°C° 0.4 mm 7 mps 735 mmHg 89%
21:00 +11°C° 0.4 mm 7 mps 735 mmHg 90%
22:00 +11°C° 0.7 mm 8 mps 735 mmHg 89%
23:00 +11°C° 0.7 mm 8 mps 735 mmHg 89%

24 October, Saturday

Time Temperature Precipitation Wind Pressure Humidity
00:00 +11°C° 0.7 mm 8 mps 734 mmHg 89%
01:00 +11°C° 0 mm 7 mps 735 mmHg 87%
02:00 +10°C° 0 mm 7 mps 735 mmHg 86%
03:00 +10°C° 0 mm 7 mps 735 mmHg 84%
04:00 +9°C° 0 mm 6 mps 736 mmHg 87%
05:00 +9°C° 0 mm 6 mps 736 mmHg 89%
06:00 +8°C° 0 mm 6 mps 736 mmHg 91%
07:00 +8°C° 0 mm 5 mps 737 mmHg 88%
08:00 +8°C° 0 mm 5 mps 737 mmHg 84%
09:00 +9°C° 0 mm 5 mps 738 mmHg 81%
10:00 +9°C° 0 mm 5 mps 738 mmHg 77%
11:00 +10°C° 0 mm 5 mps 739 mmHg 74%
12:00 +10°C° 0 mm 5 mps 739 mmHg 70%
13:00 +11°C° 0 mm 4 mps 739 mmHg 71%
14:00 +11°C° 0 mm 4 mps 739 mmHg 71%
15:00 +11°C° 0 mm 4 mps 739 mmHg 71%
16:00 +10°C° 0 mm 3 mps 739 mmHg 74%
17:00 +10°C° 0 mm 3 mps 739 mmHg 77%
18:00 +9°C° 0 mm 3 mps 739 mmHg 81%
19:00 +9°C° 0 mm 3 mps 739 mmHg 82%
20:00 +9°C° 0 mm 2 mps 739 mmHg 83%
21:00 +9°C° 0 mm 2 mps 739 mmHg 84%
22:00 +8°C° 0 mm 2 mps 739 mmHg 85%
23:00 +8°C° 0 mm 2 mps 739 mmHg 86%

25 October, Sunday

Time Temperature Precipitation Wind Pressure Humidity
00:00 +9°C° 0 mm 1 mps 738 mmHg 86%
01:00 +8°C° 0 mm 2 mps 738 mmHg 87%
02:00 +8°C° 0 mm 2 mps 737 mmHg 88%
03:00 +7°C° 0 mm 2 mps 737 mmHg 89%
04:00 +8°C° 0.4 mm 3 mps 736 mmHg 90%
05:00 +7°C° 0.4 mm 4 mps 735 mmHg 91%
06:00 +7°C° 0.4 mm 4 mps 735 mmHg 92%
07:00 +7°C° 1.6 mm 5 mps 734 mmHg 93%
08:00 +7°C° 1.6 mm 5 mps 733 mmHg 94%
09:00 +7°C° 1.6 mm 6 mps 733 mmHg 95%
10:00 +7°C° 2.3 mm 5 mps 733 mmHg 95%
11:00 +7°C° 2.3 mm 5 mps 733 mmHg 95%
12:00 +8°C° 2.3 mm 4 mps 732 mmHg 95%
13:00 +9°C° 1.1 mm 3 mps 732 mmHg 95%
14:00 +9°C° 1.1 mm 2 mps 732 mmHg 94%
15:00 +9°C° 1.1 mm 2 mps 732 mmHg 94%
16:00 +9°C° 0.7 mm 3 mps 733 mmHg 93%
17:00 +7°C° 0.7 mm 5 mps 733 mmHg 93%
18:00 +7°C° 0.7 mm 6 mps 734 mmHg 93%
19:00 +6°C° 0.5 mm 7 mps 735 mmHg 92%
20:00 +6°C° 0.5 mm 7 mps 736 mmHg 91%
21:00 +6°C° 0.5 mm 8 mps 736 mmHg 90%
22:00 +6°C° 0.1 mm 8 mps 737 mmHg 89%
23:00 +6°C° 0.1 mm 7 mps 738 mmHg 88%

26 October, Monday

Time Temperature Precipitation Wind Pressure Humidity
00:00 +6°C° 0.1 mm 7 mps 739 mmHg 87%
01:00 +5°C° 0 mm 7 mps 740 mmHg 87%
02:00 +5°C° 0 mm 7 mps 741 mmHg 86%
03:00 +5°C° 0 mm 6 mps 741 mmHg 86%
04:00 +4°C° 0 mm 6 mps 742 mmHg 86%
05:00 +4°C° 0 mm 6 mps 743 mmHg 86%
06:00 +3°C° 0 mm 5 mps 744 mmHg 87%
07:00 +3°C° 0 mm 5 mps 744 mmHg 84%
08:00 +2°C° 0 mm 5 mps 745 mmHg 82%
09:00 +2°C° 0 mm 5 mps 745 mmHg 80%
10:00 +3°C° 0 mm 5 mps 746 mmHg 75%
11:00 +5°C° 0 mm 5 mps 746 mmHg 71%
12:00 +6°C° 0 mm 5 mps 746 mmHg 66%
13:00 +6°C° 0 mm 4 mps 747 mmHg 66%
14:00 +6°C° 0 mm 4 mps 747 mmHg 65%
15:00 +6°C° 0 mm 4 mps 748 mmHg 64%
16:00 +5°C° 0 mm 3 mps 748 mmHg 70%
17:00 +5°C° 0 mm 3 mps 748 mmHg 75%
18:00 +5°C° 0 mm 2 mps 749 mmHg 80%
19:00 +4°C° 0 mm 2 mps 749 mmHg 81%
20:00 +4°C° 0 mm 2 mps 750 mmHg 83%
21:00 +4°C° 0 mm 2 mps 750 mmHg 84%
22:00 +3°C° 0 mm 2 mps 750 mmHg 84%
23:00 +4°C° 0 mm 1 mps 750 mmHg 84%

27 October, Tuesday

Time Temperature Precipitation Wind Pressure Humidity
00:00 +4°C° 0 mm 1 mps 751 mmHg 85%
01:00 +4°C° 0 mm 1 mps 751 mmHg 84%
02:00 +3°C° 0 mm 0 mps 751 mmHg 84%
03:00 +2°C° 0 mm 0 mps 752 mmHg 84%
04:00 +2°C° 0 mm 0 mps 752 mmHg 84%
05:00 +2°C° 0 mm 0 mps 752 mmHg 84%
06:00 +2°C° 0 mm 0 mps 753 mmHg 84%
07:00 +3°C° 0 mm 0 mps 753 mmHg 82%
08:00 +3°C° 0 mm 0 mps 753 mmHg 80%
09:00 +5°C° 0 mm 1 mps 753 mmHg 78%
10:00 +6°C° 0 mm 1 mps 753 mmHg 73%
11:00 +7°C° 0 mm 1 mps 754 mmHg 69%
12:00 +8°C° 0 mm 1 mps 754 mmHg 64%
13:00 +9°C° 0 mm 1 mps 754 mmHg 63%
14:00 +9°C° 0 mm 1 mps 754 mmHg 63%
15:00 +9°C° 0 mm 1 mps 754 mmHg 62%
16:00 +8°C° 0 mm 1 mps 754 mmHg 66%
17:00 +6°C° 0 mm 2 mps 754 mmHg 70%
18:00 +5°C° 0 mm 2 mps 754 mmHg 75%
19:00 +5°C° 0 mm 2 mps 754 mmHg 76%
20:00 +5°C° 0 mm 2 mps 754 mmHg 76%
21:00 +4°C° 0 mm 2 mps 755 mmHg 77%
22:00 +4°C° 0 mm 2 mps 755 mmHg 78%
23:00 +4°C° 0 mm 2 mps 755 mmHg 78%
Show more